Meteopurmerend
purmerend
Purmerend - Baaienwijk



My webcam  My webcam


Onweer radar Meer informatie blitzortung!


Regen radar Meer informatie rain snow radar


Bezoek onze andere website:

CandyAppleRed WebdesignWebdesign Purmerend Candy Apple Red

MeteopurmerendBlog

Template documentation
and downloads



We konden geen weer-waarchuwingen ophalen. Ga rechtstreeks naar de Meteoalarm site : www.meteoalarm.eu en controleer daar .

15 daagse weersverwachting Verviers (BE)

  • Overzicht
  • Per uur
  • 15 dagen
  • Extra
  • Vergelijk
  • Kaarten
  • Dagkaart
  • Meer »
  • Info
  • Statistieken
  • Directe link
    Temp 6h Neerslag Wind  
 05:28     21:53    Daglengte: 16:25 Vandaag
08:00
16°
 
2
14:00
17°
1.8 mm
2
20:00
18°
1.9 mm
2
 05:28     21:52    Daglengte: 16:24 Morgen
02:00
15°
6.9 mm
1
08:00
15°
 
2
14:00
18°
 
3
20:00
18°
 
2
 05:29     21:52    Daglengte: 16:23 Dinsdag 28 Jun
02:00
12°
5.4 mm
1
08:00
15°
 
1
14:00
22°
 
2
20:00
21°
 
3
 05:29     21:52    Daglengte: 16:23 Woensdag 29 Jun
02:00
17°
 
2
Locatie info
Region: Wallonien
Latitude: 50.5918°N
Longitude: 5.8595°E
201 masl
Postcode: 4800
Temp/Neerslag /Baro Onweer/Dauwpunt
    Temp Baro 1h Neerslag Dauwpunt Wind UV Bewolking  
 05:28     21:53    Daglengte: 16:25 Vandaag
05:00
15°
1013.6 hPa
16%
14.4°
2
Windvlaag: 4.6 m/s
21%
06:00
16°
1014.0 hPa
14%
14.3°
3
Windvlaag: 4.2 m/s
21%
07:00
15°
1014.4 hPa
15%
14.1°
3
Windvlaag: 3.2 m/s
53%
08:00
16°
1014.6 hPa
16%
13.7°
2
Windvlaag: 1.8 m/s
82%
09:00
16°
1015.1 hPa
76%
11.9°
2
Windvlaag: 1.1 m/s
70%
10:00
16°
1015.6 hPa 1.8 mm
79%
12.6°
2
Windvlaag: 2.6 m/s
76%
11:00
16°
1015.8 hPa
82%
13.2°
1
Windvlaag: 0.6 m/s
82%
12:00
17°
1015.7 hPa
74%
13.1°
1
Windvlaag: -1.9 m/s
86%
13:00
17°
1015.8 hPa
28%
13.5°
2
Windvlaag: -2.7 m/s
86%
14:00
17°
1016.0 hPa
77%
12.4°
2
Windvlaag: -2.4 m/s
86%
15:00
17°
1015.9 hPa
24%
11.7°
1
Windvlaag: -1.1 m/s
73%
16:00
18°
1015.7 hPa
14%
11.7°
1
Windvlaag: -0.7 m/s
54%
17:00
19°
1015.2 hPa
16%
11.2°
1
Windvlaag: -1.5 m/s
80%
18:00
19°
1014.9 hPa
79%
10.4°
1
Windvlaag: -2.6 m/s
85%
19:00
18°
1014.8 hPa 1.9 mm
78%
10.3°
1
Windvlaag: -2.8 m/s
84%
20:00
18°
1014.7 hPa
73%
10.8°
2
Windvlaag: -2.3 m/s
65%
21:00
17°
1014.9 hPa
82%
10.6°
2
Windvlaag: -2.1 m/s
84%
22:00
16°
1015.6 hPa 3.2 mm
82%
10.9°
2
Windvlaag: -1.4 m/s
82%
23:00
15°
1015.7 hPa
82%
10.0°
2
Windvlaag: -2.1 m/s
86%
 05:28     21:52    Daglengte: 16:24 Morgen
00:00
15°
1015.6 hPa 3.7 mm
77%
8.7°
2
Windvlaag: -1.6 m/s
83%
01:00
15°
1015.2 hPa
80%
8.1°
2
Windvlaag: -0.6 m/s
86%
02:00
15°
1014.8 hPa
82%
8.5°
1
Windvlaag: -0.7 m/s
86%
03:00
15°
1014.7 hPa
76%
8.5°
1
Windvlaag: -0.1 m/s
83%
04:00
15°
1014.7 hPa
19%
10.1°
1
Windvlaag: 1 m/s
83%
05:00
15°
1014.5 hPa
18%
11.9°
2
Windvlaag: 1.9 m/s
76%
06:00
14°
1014.6 hPa
18%
12.6°
2
Windvlaag: 1.5 m/s
68%
07:00
14°
1014.6 hPa
16%
13.4°
2
Windvlaag: 1.1 m/s
72%
08:00
15°
1015.0 hPa
62%
13.1°
2
Windvlaag: 2 m/s
69%
09:00
15°
1015.1 hPa
53%
12.9°
2
Windvlaag: 2 m/s
59%
10:00
16°
1015.7 hPa
14%
13.9°
2
Windvlaag: 1.9 m/s
73%
11:00
17°
1016.1 hPa
14%
14.6°
2
Windvlaag: 2.3 m/s
76%
12:00
18°
1016.6 hPa
14%
15.1°
3
Windvlaag: 2.2 m/s
82%
13:00
18°
1016.8 hPa
69%
14.3°
2
Windvlaag: 2.7 m/s
84%
14:00
18°
1016.8 hPa
72%
14.2°
3
Windvlaag: 3.5 m/s
84%
15:00
19°
1016.9 hPa
64%
15.3°
3
Windvlaag: 2.3 m/s
81%
16:00
18°
1017.3 hPa
15%
15.0°
3
Windvlaag: 2.2 m/s
83%
17:00
18°
1017.4 hPa
15%
13.9°
3
Windvlaag: 2.1 m/s
80%
18:00
18°
1017.7 hPa
14%
13.0°
2
Windvlaag: 0.1 m/s
53%
19:00
18°
1018.0 hPa
14%
13.4°
2
Windvlaag: -0.6 m/s
21%
20:00
18°
1018.7 hPa
14%
13.6°
2
Windvlaag: -0.5 m/s
8%
21:00
17°
1019.2 hPa
14%
13.2°
1
Windvlaag: -1.6 m/s
14%
22:00
15°
1019.8 hPa
14%
12.9°
1
Windvlaag: -0.5 m/s
11%
23:00
14°
1020.3 hPa
21%
10.9°
2
Windvlaag: 1.9 m/s
35%
 05:29     21:52    Daglengte: 16:23 Dinsdag 28 Jun
00:00
13°
1020.7 hPa 5.4 mm
21%
9.8°
1
Windvlaag: 2 m/s
21%
01:00
13°
1020.9 hPa
21%
8.9°
1
Windvlaag: 2.8 m/s
40%
02:00
12°
1021.0 hPa
21%
8.2°
1
Windvlaag: 2.2 m/s
35%
03:00
12°
1020.9 hPa
21%
7.5°
1
Windvlaag: 1.6 m/s
27%
04:00
11°
1021.1 hPa
21%
7.0°
1
Windvlaag: 1.2 m/s
32%
05:00
11°
1021.3 hPa
21%
6.7°
1
Windvlaag: 1.4 m/s
24%
06:00
12°
1021.5 hPa
21%
6.3°
1
Windvlaag: 1.4 m/s
8%
07:00
12°
1021.7 hPa
21%
7.2°
1
Windvlaag: 1.1 m/s
7%
08:00
15°
1021.3 hPa
21%
8.7°
1
Windvlaag: 1.2 m/s
0%
09:00
17°
1021.0 hPa
21%
8.5°
1
Windvlaag: 2.8 m/s
0%
10:00
18°
1020.7 hPa
21%
9.8°
1
Windvlaag: 3.5 m/s
0%
11:00
20°
1020.3 hPa
21%
10.5°
2
Windvlaag: 3.2 m/s
1%
12:00
21°
1020.0 hPa
21%
10.2°
2
Windvlaag: 3.3 m/s
76%
13:00
21°
1019.3 hPa
21%
10.5°
2
Windvlaag: 4 m/s
98%
14:00
22°
1018.5 hPa
21%
10.4°
2
Windvlaag: 3.8 m/s
74%
15:00
23°
1018.0 hPa
21%
10.0°
3
Windvlaag: 3.9 m/s
62%
16:00
23°
1017.7 hPa
21%
10.5°
2
Windvlaag: 3.8 m/s
22%
17:00
23°
1017.2 hPa
21%
10.8°
3
Windvlaag: 4.2 m/s
22%
18:00
23°
1016.8 hPa
21%
10.8°
2
Windvlaag: 4.5 m/s
30%
19:00
23°
1016.5 hPa
23%
10.8°
3
Windvlaag: 4.3 m/s
93%
20:00
21°
1016.5 hPa
28%
11.3°
3
Windvlaag: 4.3 m/s
93%
21:00
20°
1016.2 hPa
38%
13.8°
1
Windvlaag: 4.9 m/s
94%
22:00
18°
1016.3 hPa
23%
12.7°
2
Windvlaag: 7.1 m/s
59%
23:00
18°
1016.2 hPa
25%
11.0°
2
Windvlaag: 8 m/s
82%
 05:29     21:52    Daglengte: 16:23 Woensdag 29 Jun
00:00
18°
1015.9 hPa
30%
9.0°
2
Windvlaag: 8.5 m/s
80%
01:00
18°
1015.5 hPa
29%
8.2°
2
Windvlaag: 8.3 m/s
80%
02:00
17°
1015.2 hPa
21%
8.4°
2
Windvlaag: 7.1 m/s
80%
Temp/Neerslag /Baro Onweer/Dauwpunt
    Temp Baro Neerslag Dauwpunt Wind Bewolking  
 05:28     21:53    Daglengte: 16:25 Vandaag
05:00
15°
1013.6 hPa   14.4°
2
21%
08:00
16°
1014.6 hPa   13.7°
2
82%
11:00
16°
1015.8 hPa 1.8 mm 13.2°
1
82%
14:00
17°
1016.0 hPa   12.4°
2
86%
17:00
19°
1015.2 hPa   11.2°
1
80%
20:00
18°
1014.7 hPa 1.9 mm 10.8°
2
65%
23:00
15°
1015.7 hPa 3.2 mm 10.0°
2
86%
 05:28     21:52    Daglengte: 16:24 Morgen
02:00
15°
1014.8 hPa 3.7 mm 8.5°
1
86%
05:00
15°
1014.5 hPa   11.9°
2
76%
08:00
15°
1015.0 hPa   13.1°
2
69%
11:00
17°
1016.1 hPa   14.6°
2
76%
14:00
18°
1016.8 hPa   14.2°
3
84%
17:00
18°
1017.4 hPa   13.9°
3
80%
20:00
18°
1018.7 hPa   13.6°
2
8%
23:00
14°
1020.3 hPa   10.9°
2
35%
 05:29     21:52    Daglengte: 16:23 Dinsdag 28 Jun
02:00
12°
1021.0 hPa 5.4 mm 8.2°
1
35%
05:00
11°
1021.3 hPa   6.7°
1
24%
08:00
15°
1021.3 hPa   8.7°
1
0%
11:00
20°
1020.3 hPa   10.5°
2
1%
14:00
22°
1018.5 hPa   10.4°
2
74%
17:00
23°
1017.2 hPa   10.8°
3
22%
20:00
21°
1016.5 hPa   11.3°
3
93%
23:00
18°
1016.2 hPa   11.0°
2
82%
 05:29     21:52    Daglengte: 16:23 Woensdag 29 Jun
02:00
17°
1015.2 hPa   8.4°
2
80%
05:00
14°
1016.8 hPa 8.3 mm 9.4°
2
1%
08:00
19°
1016.6 hPa 8.3 mm 11.7°
1
0%
11:00
24°
1015.9 hPa 8.3 mm 10.1°
2
0%
14:00
27°
Voelt als: 26.6°
1014.7 hPa 8.3 mm 9.7°
2
0%
17:00
28°
Voelt als: 26.9°
1013.7 hPa 8.3 mm 9.8°
1
0%
20:00
25°
1013.4 hPa 8.3 mm 15.8°
1
1%
23:00
18°
1014.4 hPa 8.3 mm 13.7°
2
1%
 05:30     21:52    Daglengte: 16:22 Donderdag 30 Jun
02:00
16°
1013.8 hPa 8.3 mm 12.1°
1
0%
05:00
16°
1012.3 hPa 8.3 mm 11.7°
2
0%
08:00
21°
1012.3 hPa 8.3 mm 14.3°
1
0%
11:00
27°
1010.7 hPa 8.3 mm 14.3°
2
0%
14:00
30°
Voelt als: 29.1°
1009.4 hPa 8.3 mm 12.8°
3
0%
17:00
30°
Voelt als: 29.2°
1008.0 hPa 8.3 mm 12.8°
4
0%
20:00
26°
1007.2 hPa 8.4 mm 18.2°
2
1%
23:00
17°
1009.8 hPa 17.9 mm 16.5°
1
1%
 05:30     21:52    Daglengte: 16:22 Vrijdag 01 Jul
02:00
15°
1010.5 hPa 18.4 mm 15.2°
2
1%
05:00
15°
1010.6 hPa 26.9 mm 14.9°
4
1%
08:00
12°
1014.4 hPa 28.1 mm 12.3°
4
1%
11:00
17°
1015.5 hPa 28.2 mm 9.4°
5
1%
14:00
21°
1015.2 hPa 28.2 mm 8.5°
5
0%
17:00
19°
1016.1 hPa 28.8 mm 8.7°
5
1%
20:00
18°
1017.0 hPa 29.2 mm 10.3°
3
1%
23:00
14°
1018.9 hPa 29.4 mm 10.7°
3
1%
 05:31     21:51    Daglengte: 16:20 Zaterdag 02 Jul
02:00
11°
1020.2 hPa 29.4 mm 8.6°
3
0%
05:00
10°
1021.1 hPa 29.4 mm 8.0°
3
0%
08:00
14°
1021.2 hPa 29.4 mm 8.7°
3
0%
11:00
19°
1020.7 hPa 29.4 mm 9.2°
5
0%
14:00
22°
1020.1 hPa 29.4 mm 9.3°
5
0%
17:00
23°
1019.4 hPa 29.4 mm 9.5°
5
1%
20:00
19°
1019.5 hPa 29.4 mm 12.9°
1
1%
23:00
17°
1019.9 hPa 29.4 mm 11.1°
1
1%
 05:32     21:51    Daglengte: 16:19 Zondag 03 Jul
02:00
14°
1019.6 hPa 58.8 mm 10.2°
2
1%
08:00
17°
1019.3 hPa 58.8 mm 10.8°
2
0%
14:00
24°
1018.3 hPa 58.8 mm 11.2°
6
0%
20:00
20°
1018.3 hPa 58.9 mm 10.8°
2
0%
 05:33     21:51    Daglengte: 16:18 Maandag 04 Jul
02:00
11°
1020.5 hPa 58.9 mm 8.7°
1
0%
08:00
14°
1020.9 hPa 58.9 mm 10.3°
2
0%
14:00
21°
1021.2 hPa 58.9 mm 8.0°
4
0%
20:00
18°
1022.2 hPa 59.1 mm 10.4°
4
1%
 05:33     21:50    Daglengte: 16:17 Dinsdag 05 Jul
02:00
10°
Voelt als: 9.9°
1024.8 hPa 59.1 mm 8.8°
1
0%
08:00
13°
1025.1 hPa 59.1 mm 9.7°
1
0%
14:00
22°
1024.0 hPa 59.2 mm 10.2°
3
0%
20:00
21°
1023.7 hPa 59.2 mm 12.8°
1
1%
 05:34     21:50    Daglengte: 16:16 Woensdag 06 Jul
02:00
14°
1019.1 hPa 0.7 mm 12.0°
1
42%
08:00
16°
1019.0 hPa 0.5 mm 13.1°
1
43%
14:00
23°
1018.0 hPa 0.5 mm 14.7°
1
48%
20:00
21°
1017.2 hPa 0.6 mm 15.5°
1
49%
 05:35     21:49    Daglengte: 16:14 Donderdag 07 Jul
02:00
15°
1018.4 hPa 0.3 mm 12.2°
1
48%
08:00
16°
1018.7 hPa 0.2 mm 13.2°
2
47%
14:00
22°
1018.3 hPa 0.8 mm 14.8°
2
49%
20:00
21°
1017.6 hPa 0.7 mm 15.8°
1
48%
 05:36     21:48    Daglengte: 16:12 Vrijdag 08 Jul
02:00
15°
1018.8 hPa 0.5 mm 12.2°
1
35%
08:00
16°
1018.9 hPa 0.4 mm 13.3°
2
45%
14:00
22°
1017.9 hPa 0.6 mm 14.4°
2
48%
20:00
21°
1017.3 hPa 1.3 mm 15.3°
1
44%
 05:37     21:48    Daglengte: 16:11 Zaterdag 09 Jul
02:00
14°
1018.5 hPa 0.2 mm 11.2°
1
31%
08:00
15°
1018.2 hPa 0.1 mm 12.8°
2
43%
14:00
22°
1016.9 hPa 0.7 mm 13.8°
2
48%
20:00
21°
1015.9 hPa 0.7 mm 14.7°
1
53%
 05:38     21:47    Daglengte: 16:09 Zondag 10 Jul
02:00
14°
1016.8 hPa 0.7 mm 11.4°
1
50%
08:00
15°
1016.7 hPa 0.5 mm 12.7°
2
55%
14:00
21°
1016.2 hPa 0.7 mm 13.7°
3
62%
20:00
20°
1016.4 hPa 0.8 mm 14.3°
2
50%
 05:39     21:46    Daglengte: 16:07 Maandag 11 Jul
02:00
13°
1018.0 hPa 0.2 mm 10.8°
1
39%
  CAPE Lifted Index Hail Supercell Tornado SRH 3km CL BTM PRES CL TOP PRES Swiss DWD icon SMHI TS
 05:28     21:53    Daglengte: 16:25 Vandaag
05:00 0 J/kg 1.8 K 0 % 0 % 0 % 0 m²/s² 0 0 2.7 3
06:00 0 J/kg 2.1 K 0 % 0 % 0 % 0 m²/s² 0 0 3.33 3
07:00 9 J/kg 2.2 K 0 % 0 % 0 % 0 m²/s² 0 0 4.33 3
08:00 16 J/kg 2.5 K 0 % 0 % 0 % 0 m²/s² 0 0 4.06 3
09:00 6 J/kg 2.9 K 0 % 0 % 0 % 0 m²/s² 0 0 3.17 3
10:00 21 J/kg 2.7 K 0 % 0 % 0 % 0 m²/s² 0 0 3.09 61
11:00 35 J/kg 1.7 K 0 % 0 % 0 % 0 m²/s² 0 0 2.99 61
12:00 82 J/kg 0.5 K 0 % 0 % 0 % 0 m²/s² 0 0 1.01 61
13:00 128 J/kg 0.5 K 0 % 0 % 0 % 0 m²/s² 0 0 1.55 3
14:00 158 J/kg -0.1 K 0 % 0 % 0 % 0 m²/s² 0 0 2.03 61
15:00 214 J/kg -0.9 K 0 % 0 % 0 % 0 m²/s² 0 0 1.11 3
16:00 225 J/kg -0.6 K 0 % 0 % 0 % 0 m²/s² 0 0 1.05 3
17:00 175 J/kg -0.4 K 0 % 0 % 0 % 0 m²/s² 0 0 0.65 3
18:00 188 J/kg -0.2 K 0 % 0 % 0 % 0 m²/s² 0 0 0.01 61
19:00 303 J/kg -0.9 K 0 % 0 % 0 % 0 m²/s² 0 0 -0.87 61
20:00 174 J/kg -0.5 K 0 % 0 % 0 % 0 m²/s² 0 0 -0.5 3
21:00 69 J/kg 0.9 K 0 % 0 % 0 % 0 m²/s² 0 0 0.9 61
22:00 0 J/kg 2.8 K 0 % 0 % 0 % 0 m²/s² 0 0 2.8 61
23:00 0 J/kg 2.1 K 0 % 0 % 0 % 0 m²/s² 0 0 2.13 61
 05:28     21:52    Daglengte: 16:24 Morgen
00:00 0 J/kg 0.9 K 0 % 0 % 0 % 0 m²/s² 0 0 1.08 61
01:00 0 J/kg 0.3 K 0 % 0 % 0 % 0 m²/s² 0 0 1.71 3
02:00 0 J/kg 1.7 K 0 % 0 % 0 % 0 m²/s² 0 0 2.51 45
03:00 0 J/kg 1.9 K 0 % 0 % 0 % 0 m²/s² 0 0 3.88 3
04:00 0 J/kg 3.0 K 0 % 0 % 0 % 0 m²/s² 0 0 6.24 3
05:00 0 J/kg 4.4 K 0 % 0 % 0 % 0 m²/s² 0 0 7.37 3
06:00 0 J/kg 3.6 K 0 % 0 % 0 % 0 m²/s² 0 0 6.75 3
07:00 0 J/kg 2.8 K 0 % 0 % 0 % 0 m²/s² 0 0 6.28 45
08:00 0 J/kg 2.8 K 0 % 0 % 0 % 0 m²/s² 0 0 6.1 3
09:00 0 J/kg 3.5 K 0 % 0 % 0 % 0 m²/s² 0 0 6.38 3
10:00 36 J/kg 2.0 K 0 % 0 % 0 % 0 m²/s² 0 0 4.34 3
11:00 140 J/kg 1.3 K 0 % 0 % 0 % 0 m²/s² 0 0 2.86 3
12:00 127 J/kg 1.0 K 0 % 0 % 0 % 0 m²/s² 0 0 2.41 3
13:00 133 J/kg 2.3 K 0 % 0 % 0 % 0 m²/s² 0 0 3.92 61
14:00 52 J/kg 3.1 K 0 % 0 % 0 % 0 m²/s² 0 0 4.78 61
15:00 30 J/kg 3.4 K 0 % 0 % 0 % 0 m²/s² 0 0 4.78 3
16:00 84 J/kg 1.9 K 0 % 0 % 0 % 0 m²/s² 0 0 3.73 3
17:00 113 J/kg 1.3 K 0 % 0 % 0 % 0 m²/s² 0 0 1.69 3
18:00 147 J/kg -0.1 K 0 % 0 % 0 % 0 m²/s² 0 0 2.27 3
19:00 145 J/kg 0.1 K 0 % 0 % 0 % 0 m²/s² 0 0 4.96 3
20:00 152 J/kg 0.2 K 0 % 0 % 0 % 0 m²/s² 0 0 4.37 2
21:00 183 J/kg 0.0 K 0 % 0 % 0 % 0 m²/s² 0 0 4.38 1
22:00 160 J/kg 0.4 K 0 % 0 % 0 % 0 m²/s² 0 0 4.75 1
23:00 104 J/kg 1.6 K 0 % 0 % 0 % 0 m²/s² 0 0 6.19 2
 05:29     21:52    Daglengte: 16:23 Dinsdag 28 Jun
00:00 0 J/kg 4.4 K 0 % 0 % 0 % 0 m²/s² 0 0 8.66 2
01:00 0 J/kg 5.8 K 0 % 0 % 0 % 0 m²/s² 0 0 9.94 0
02:00 0 J/kg 7.3 K 0 % 0 % 0 % 0 m²/s² 0 0 12.52 0
03:00 0 J/kg 8.2 K 0 % 0 % 0 % 0 m²/s² 0 0 14.26 1
04:00 0 J/kg 8.8 K 0 % 0 % 0 % 0 m²/s² 0 0 15.91 0
05:00 0 J/kg 8.9 K 0 % 0 % 0 % 0 m²/s² 0 0 16.82 0
06:00 0 J/kg 9.2 K 0 % 0 % 0 % 0 m²/s² 0 0 17.15 1
07:00 0 J/kg 9.2 K 0 % 0 % 0 % 0 m²/s² 0 0 17.21 0
08:00 0 J/kg 8.8 K 0 % 0 % 0 % 0 m²/s² 0 0 16.24 0
09:00 0 J/kg 8.7 K 0 % 0 % 0 % 0 m²/s² 0 0 15.72 0
10:00 0 J/kg 8.6 K 0 % 0 % 0 % 0 m²/s² 0 0 15.23 1
11:00 6 J/kg 7.5 K 0 % 0 % 0 % 0 m²/s² 0 0 13.77 2
12:00 14 J/kg 6.6 K 0 % 0 % 0 % 0 m²/s² 0 0 12.51 3
13:00 37 J/kg 5.8 K 0 % 0 % 0 % 0 m²/s² 0 0 11.74 3
14:00 33 J/kg 5.5 K 0 % 0 % 0 % 0 m²/s² 0 0 12.16 3
15:00 24 J/kg 5.3 K 0 % 0 % 0 % 0 m²/s² 0 0 12.41 3
16:00 19 J/kg 4.8 K 0 % 0 % 0 % 0 m²/s² 0 0 11.91 3
17:00 14 J/kg 4.0 K 0 % 0 % 0 % 0 m²/s² 0 0 11.11 3
18:00 22 J/kg 3.6 K 0 % 0 % 0 % 0 m²/s² 0 0 10.47 3
19:00 17 J/kg 3.3 K 0 % 0 % 0 % 0 m²/s² 0 0 10.41 3
20:00 23 J/kg 3.1 K 0 % 0 % 0 % 0 m²/s² 0 0 9.97 3
21:00 12 J/kg 2.8 K 0 % 0 % 0 % 0 m²/s² 0 0 9.91 3
22:00 2 J/kg 3.0 K 0 % 0 % 0 % 0 m²/s² 0 0 10.14 3
23:00 0 J/kg 3.2 K 0 % 0 % 0 % 0 m²/s² 0 0 10.13 3
 05:29     21:52    Daglengte: 16:23 Woensdag 29 Jun
00:00 0 J/kg 3.9 K 0 % 0 % 0 % 0 m²/s² 0 0 10.83 3
01:00 0 J/kg 4.1 K 0 % 0 % 0 % 0 m²/s² 0 0 11 3
02:00 0 J/kg 4.9 K 0 % 0 % 0 % 0 m²/s² 0 0 11.62 3
Temp Baro Wind Neerslag
  EWN Forecast EWN WRFDA DWD ICON FMI HIRLAM MET Norway GFS
 05:28     21:53    Daglengte: 16:25 Vandaag
05:00 15.5° 1013.6 hPa 2.1 m/s 0.0 mm 14.3° 1012.5 hPa 3.4 m/s 15.6 mm 14.6° 1013.9 hPa 1.0 m/s -1.6 mm 16.2° 1013.5 hPa 3.1 m/s 0.0 mm 13.3° 1014.2 hPa 2.1 m/s
08:00 15.9° 1014.6 hPa 2.1 m/s 0.0 mm 15.6° 1013.1 hPa 3.3 m/s 23.7 mm 16.0° 1015.2 hPa 2.1 m/s 0.0 mm 16.1° 1014.3 hPa 2.4 m/s 0.0 mm 14.9° 1015.6 hPa 2.6 m/s
11:00 16.1° 1015.8 hPa 1.1 m/s 1.8 mm 17.7° 1014.2 hPa 0.1 m/s 24.7 mm 15.0° 1016.7 hPa 1.4 m/s 1.0 mm 16.0° 1015.9 hPa 1.3 m/s 0.0 mm 15.8° 1016.7 hPa 2.3 m/s
14:00 16.8° 1016.0 hPa 1.8 m/s 0.0 mm 20.0° 1014.2 hPa 2.0 m/s 25.6 mm 16.4° 1016.3 hPa 1.8 m/s 0.1 mm 17.0° 1016.2 hPa 1.1 m/s 0.0 mm 15.4° 1017.2 hPa 2.6 m/s
17:00 19.0° 1015.2 hPa 1.2 m/s 0.0 mm 22.1° 1013.7 hPa 2.2 m/s 25.9 mm 19.1° 1015.4 hPa 1.0 m/s 0.0 mm 19.2° 1015.6 hPa 0.6 m/s 0.0 mm 18.5° 1016.5 hPa 2.9 m/s
20:00 17.6° 1014.7 hPa 1.7 m/s 1.9 mm 18.7° 1013.6 hPa 3.1 m/s 26.2 mm 17.3° 1014.8 hPa 1.1 m/s 0.4 mm 19.9° 1015.1 hPa 1.5 m/s 0.0 mm 18.9° 1015.1 hPa 0.6 m/s
23:00 15.4° 1015.7 hPa 1.6 m/s 3.2 mm 14.6° 1013.7 hPa 1.7 m/s 36.7 mm 15.0° 1015.4 hPa 0.8 m/s 0.9 mm 17.3° 1016.2 hPa 2.1 m/s 0.0 mm 15.4° 1014.9 hPa 0.9 m/s
 05:28     21:52    Daglengte: 16:24 Morgen
02:00 14.9° 1014.8 hPa 1.3 m/s 3.7 mm 14.6° 1013.8 hPa 1.2 m/s 43.8 mm 14.8° 1014.7 hPa 0.9 m/s 0.2 mm 16.0° 1014.8 hPa 2.6 m/s 0.0 mm 14.0° 1015.9 hPa 1.4 m/s
05:00 14.6° 1014.5 hPa 1.6 m/s 0.0 mm 13.3° 1013.1 hPa 2.7 m/s 43.9 mm 14.6° 1015.1 hPa 0.1 m/s 0.0 mm 15.1° 1012.1 hPa 5.0 m/s 0.0 mm 12.8° 1015.9 hPa 1.8 m/s
08:00 14.7° 1015.0 hPa 2.2 m/s 0.0 mm 14.4° 1013.5 hPa 2.7 m/s 44.0 mm 14.8° 1015.7 hPa 1.3 m/s 0.0 mm 14.2° 1011.6 hPa 7.1 m/s 0.0 mm 14.3° 1016.7 hPa 2.2 m/s
11:00 16.6° 1016.1 hPa 2.3 m/s 0.0 mm 18.5° 1014.7 hPa 3.1 m/s 44.0 mm 16.9° 1016.8 hPa 1.6 m/s 0.0 mm 16.1° 1012.7 hPa 4.2 m/s 0.0 mm 18.9° 1017.2 hPa 3.7 m/s
14:00 18.4° 1016.8 hPa 2.7 m/s 0.0 mm 20.7° 1015.4 hPa 4.0 m/s 44.0 mm 17.9° 1017.3 hPa 1.6 m/s 0.1 mm 17.4° 1014.9 hPa 4.0 m/s 0.0 mm 18.8° 1018.1 hPa 4.3 m/s
17:00 18.4° 1017.4 hPa 2.9 m/s 0.0 mm 18.1° 1017.3 hPa 5.1 m/s 44.0 mm 18.4° 1017.4 hPa 2.0 m/s 0.0 mm 18.4° 1016.6 hPa 3.3 m/s 0.0 mm 18.9° 1019.1 hPa 4.0 m/s
20:00 18.1° 1018.7 hPa 1.7 m/s 0.0 mm 17.6° 1018.1 hPa 0.9 m/s 44.8 mm 17.9° 1018.9 hPa 2.1 m/s 0.0 mm 18.1° 1018.0 hPa 1.6 m/s 0.0 mm 17.3° 1019.5 hPa 2.6 m/s
23:00 13.9° 1020.3 hPa 1.6 m/s 0.0 mm 12.2° 1019.7 hPa 2.5 m/s 45.7 mm 13.9° 1020.3 hPa 1.5 m/s 0.0 mm 12.8° 1021.2 hPa 1.8 m/s
 05:29     21:52    Daglengte: 16:23 Dinsdag 28 Jun
02:00 12.4° 1021.0 hPa 1.2 m/s 5.4 mm 10.2° 1021.0 hPa 1.9 m/s 45.7 mm 12.5° 1020.8 hPa 0.9 m/s 0.0 mm 11.2° 1021.9 hPa 1.6 m/s
05:00 11.1° 1021.3 hPa 1.3 m/s 0.0 mm 8.6° 1021.0 hPa 2.0 m/s 45.7 mm 11.2° 1021.1 hPa 1.0 m/s 0.0 mm 10.5° 1022.2 hPa 1.5 m/s
08:00 14.9° 1021.3 hPa 0.5 m/s 0.0 mm 15.1° 1021.4 hPa 0.9 m/s 45.7 mm 14.8° 1021.2 hPa 0.4 m/s 0.0 mm 14.9° 1021.7 hPa 1.3 m/s
11:00 19.8° 1020.3 hPa 1.6 m/s 0.0 mm 19.7° 1020.1 hPa 0.7 m/s 45.7 mm 19.8° 1020.4 hPa 1.8 m/s 0.0 mm 21.2° 1020.8 hPa 1.7 m/s
14:00 21.9° 1018.5 hPa 2.4 m/s 0.0 mm 22.6° 1019.1 hPa 1.9 m/s 45.7 mm 21.8° 1018.4 hPa 2.5 m/s 0.0 mm 24.3° 1018.7 hPa 0.8 m/s
17:00 23.4° 1017.2 hPa 2.6 m/s 0.0 mm 24.1° 1017.6 hPa 1.8 m/s 45.7 mm 23.2° 1017.2 hPa 2.8 m/s 0.0 mm 25.0° 1017.5 hPa 0.8 m/s
20:00 21.5° 1016.5 hPa 2.7 m/s 0.0 mm 23.7° 1017.2 hPa 2.4 m/s 45.7 mm 20.9° 1016.3 hPa 2.7 m/s 0.0 mm 22.4° 1017.3 hPa 0.7 m/s
23:00 17.8° 1016.2 hPa 1.6 m/s 0.0 mm 18.0° 1016.9 hPa 4.2 m/s 45.7 mm 17.8° 1016.0 hPa 0.9 m/s 0.0 mm 15.8° 1018.0 hPa 1.7 m/s
 05:29     21:52    Daglengte: 16:23 Woensdag 29 Jun
02:00 16.9° 1015.2 hPa 2.0 m/s 0.0 mm 16.6° 1016.1 hPa 4.3 m/s 45.7 mm 17.0° 1014.9 hPa 1.4 m/s 0.0 mm 14.7° 1017.2 hPa 1.8 m/s
05:00 13.9° 1016.8 hPa 1.8 m/s 8.3 mm 13.9° 1016.8 hPa 1.8 m/s 8.3 mm
08:00 18.5° 1016.6 hPa 1.5 m/s 8.3 mm 18.5° 1016.6 hPa 1.5 m/s 8.3 mm
11:00 24.3° 1015.9 hPa 1.8 m/s 8.3 mm 24.3° 1015.9 hPa 1.8 m/s 8.3 mm
14:00 27.0° 1014.7 hPa 1.8 m/s 8.3 mm 27.0° 1014.7 hPa 1.8 m/s 8.3 mm
17:00 27.6° 1013.7 hPa 1.3 m/s 8.3 mm 27.6° 1013.7 hPa 1.3 m/s 8.3 mm
20:00 24.5° 1013.4 hPa 0.5 m/s 8.3 mm 24.5° 1013.4 hPa 0.5 m/s 8.3 mm
23:00 18.0° 1014.4 hPa 1.9 m/s 8.3 mm 18.0° 1014.4 hPa 1.9 m/s 8.3 mm
 05:30     21:52    Daglengte: 16:22 Donderdag 30 Jun
02:00 16.5° 1013.8 hPa 1.5 m/s 8.3 mm 16.5° 1013.8 hPa 1.5 m/s 8.3 mm
05:00 16.1° 1012.3 hPa 1.9 m/s 8.3 mm 16.1° 1012.3 hPa 1.9 m/s 8.3 mm
08:00 21.1° 1012.3 hPa 1.3 m/s 8.3 mm 21.1° 1012.3 hPa 1.3 m/s 8.3 mm
11:00 27.2° 1010.7 hPa 2.5 m/s 8.3 mm 27.2° 1010.7 hPa 2.5 m/s 8.3 mm
14:00 30.0° 1009.4 hPa 3.3 m/s 8.3 mm 30.0° 1009.4 hPa 3.3 m/s 8.3 mm
17:00 30.0° 1008.0 hPa 4.2 m/s 8.3 mm 30.0° 1008.0 hPa 4.2 m/s 8.3 mm
20:00 25.6° 1007.2 hPa 1.5 m/s 8.4 mm 25.6° 1007.2 hPa 1.5 m/s 8.4 mm
23:00 16.7° 1009.8 hPa 1.5 m/s 17.9 mm 16.7° 1009.8 hPa 1.5 m/s 17.9 mm
 05:30     21:52    Daglengte: 16:22 Vrijdag 01 Jul
02:00 15.3° 1010.5 hPa 1.5 m/s 18.4 mm 15.3° 1010.5 hPa 1.5 m/s 18.4 mm
05:00 15.4° 1010.6 hPa 3.7 m/s 26.9 mm 15.4° 1010.6 hPa 3.7 m/s 26.9 mm
08:00 12.5° 1014.4 hPa 4.4 m/s 28.1 mm 12.5° 1014.4 hPa 4.4 m/s 28.1 mm
11:00 16.7° 1015.5 hPa 5.3 m/s 28.2 mm 16.7° 1015.5 hPa 5.3 m/s 28.2 mm
14:00 20.6° 1015.2 hPa 4.6 m/s 28.2 mm 20.6° 1015.2 hPa 4.6 m/s 28.2 mm
17:00 19.4° 1016.1 hPa 4.6 m/s 28.8 mm 19.4° 1016.1 hPa 4.6 m/s 28.8 mm
20:00 18.4° 1017.0 hPa 3.2 m/s 29.2 mm 18.4° 1017.0 hPa 3.2 m/s 29.2 mm
23:00 13.7° 1018.9 hPa 2.9 m/s 29.4 mm 13.7° 1018.9 hPa 2.9 m/s 29.4 mm
 05:31     21:51    Daglengte: 16:20 Zaterdag 02 Jul
02:00 11.0° 1020.2 hPa 2.8 m/s 29.4 mm 11.0° 1020.2 hPa 2.8 m/s 29.4 mm
05:00 10.1° 1021.1 hPa 2.7 m/s 29.4 mm 10.1° 1021.1 hPa 2.7 m/s 29.4 mm
08:00 14.5° 1021.2 hPa 3.0 m/s 29.4 mm 14.5° 1021.2 hPa 3.0 m/s 29.4 mm
11:00 19.3° 1020.7 hPa 5.2 m/s 29.4 mm 19.3° 1020.7 hPa 5.2 m/s 29.4 mm
14:00 21.7° 1020.1 hPa 5.0 m/s 29.4 mm 21.7° 1020.1 hPa 5.0 m/s 29.4 mm
17:00 22.8° 1019.4 hPa 4.8 m/s 29.4 mm 22.8° 1019.4 hPa 4.8 m/s 29.4 mm
20:00 19.1° 1019.5 hPa 1.1 m/s 29.4 mm 19.1° 1019.5 hPa 1.1 m/s 29.4 mm
23:00 17.0° 1019.9 hPa 1.4 m/s 29.4 mm 17.0° 1019.9 hPa 1.4 m/s 29.4 mm
 05:32     21:51    Daglengte: 16:19 Zondag 03 Jul
02:00 13.6° 1019.6 hPa 2.4 m/s 29.4 mm 13.6° 1019.6 hPa 2.4 m/s 29.4 mm
08:00 16.7° 1019.3 hPa 2.4 m/s 29.4 mm 16.7° 1019.3 hPa 2.4 m/s 29.4 mm
14:00 23.9° 1018.3 hPa 5.7 m/s 29.4 mm 23.9° 1018.3 hPa 5.7 m/s 29.4 mm
20:00 20.0° 1018.3 hPa 2.5 m/s 29.4 mm 20.0° 1018.3 hPa 2.5 m/s 29.4 mm
 05:33     21:51    Daglengte: 16:18 Maandag 04 Jul
02:00 11.5° 1020.5 hPa 1.0 m/s 29.4 mm 11.5° 1020.5 hPa 1.0 m/s 29.4 mm
08:00 14.3° 1020.9 hPa 2.1 m/s 29.4 mm 14.3° 1020.9 hPa 2.1 m/s 29.4 mm
14:00 21.1° 1021.2 hPa 4.0 m/s 29.5 mm 21.1° 1021.2 hPa 4.0 m/s 29.5 mm
20:00 17.7° 1022.2 hPa 4.0 m/s 29.6 mm 17.7° 1022.2 hPa 4.0 m/s 29.6 mm
 05:33     21:50    Daglengte: 16:17 Dinsdag 05 Jul
02:00 9.9° 1024.8 hPa 0.8 m/s 29.6 mm 9.9° 1024.8 hPa 0.8 m/s 29.6 mm
08:00 13.4° 1025.1 hPa 0.8 m/s 29.6 mm 13.4° 1025.1 hPa 0.8 m/s 29.6 mm
14:00 22.0° 1024.0 hPa 3.2 m/s 29.6 mm 22.0° 1024.0 hPa 3.2 m/s 29.6 mm
20:00 20.8° 1023.7 hPa 1.5 m/s 29.6 mm 20.8° 1023.7 hPa 1.5 m/s 29.6 mm
 05:34     21:50    Daglengte: 16:16 Woensdag 06 Jul
02:00 14.3° 1019.1 hPa 0.5 m/s 0.7 mm
08:00 15.8° 1019.0 hPa 0.7 m/s 0.5 mm
14:00 23.0° 1018.0 hPa 1.1 m/s 0.5 mm
20:00 21.1° 1017.2 hPa 1.2 m/s 0.6 mm
 05:35     21:49    Daglengte: 16:14 Donderdag 07 Jul
02:00 14.7° 1018.4 hPa 1.0 m/s 0.3 mm
08:00 16.1° 1018.7 hPa 1.7 m/s 0.2 mm
14:00 22.4° 1018.3 hPa 2.1 m/s 0.8 mm
20:00 20.7° 1017.6 hPa 1.3 m/s 0.7 mm
 05:36     21:48    Daglengte: 16:12 Vrijdag 08 Jul
02:00 14.5° 1018.8 hPa 0.8 m/s 0.5 mm
08:00 15.8° 1018.9 hPa 1.5 m/s 0.4 mm
14:00 22.4° 1017.9 hPa 2.1 m/s 0.6 mm
20:00 20.6° 1017.3 hPa 1.4 m/s 1.3 mm
 05:37     21:48    Daglengte: 16:11 Zaterdag 09 Jul
02:00 13.5° 1018.5 hPa 1.1 m/s 0.2 mm
08:00 15.3° 1018.2 hPa 1.5 m/s 0.1 mm
14:00 22.4° 1016.9 hPa 2.1 m/s 0.7 mm
20:00 20.9° 1015.9 hPa 1.4 m/s 0.7 mm
 05:38     21:47    Daglengte: 16:09 Zondag 10 Jul
02:00 14.1° 1016.8 hPa 0.9 m/s 0.7 mm
08:00 15.4° 1016.7 hPa 1.8 m/s 0.5 mm
14:00 21.5° 1016.2 hPa 2.5 m/s 0.7 mm
20:00 19.8° 1016.4 hPa 1.9 m/s 0.8 mm
 05:39     21:46    Daglengte: 16:07 Maandag 11 Jul
02:00 13.1° 1018.0 hPa 0.8 m/s 0.2 mm
FMI Hirlam - 7.5 km EWN WRFDA - 12 km DWD ICON - 7 km GFS - 25 km Basiskaart






























































Updatetijd (Europe/Amsterdam) Resolutie Lengte Stap
FMI Hirlam 01:45, 07:45, 13:45, 19:45 7.5 km 49h 1h
EWN WRFDA 22:30, 04:30, 10:30, 16:30 12 km 73h 1h
DWD ICON 23:45, 05:45, 11:45, 17:45 7 km 75h 1h
GFS 02:15, 08:15, 14:15, 20:15 25 km 237h 3h
30+ mm
25-30 mm
20-25 mm
15-20 mm
10-15 mm
6-10 mm
4-6 mm
2-4 mm
1-2 mm
0.5-1 mm
0.2-0.5 mm
0.1-0.2 mm
30+ mm
25-30 mm
20-25 mm
15-20 mm
10-15 mm
6-10 mm
4-6 mm
2-4 mm
1-2 mm
0.5-1 mm
0.2-0.5 mm
0.1-0.2 mm
Sneeuwval
Natte sneeuw
Hagel
Vorst
30+ mm
25-30 mm
20-25 mm
15-20 mm
10-15 mm
6-10 mm
4-6 mm
2-4 mm
1-2 mm
0.5-1 mm
0.2-0.5 mm
0.1-0.2 mm
Sneeuwval
Natte sneeuw
Hagel
Vorst
Onweer
50 mm
40 mm
30 mm
26 mm
22 mm
18 mm
14 mm
10 mm
9 mm
8 mm
7 mm
6 mm
5 mm
4.5 mm
4 mm
3.5 mm
3 mm
2.5 mm
2 mm
1.5 mm
1 mm
0.8 mm
0.6 mm
0.4 mm
0.2 mm
0.05 mm
35°
30°
25°
20°
15°
10°
-5°
-10°
-15°
-20°
-25°
-30°
-35°
33> m/s
29 m/s
25 m/s
21 m/s
17 m/s
14 m/s
11 m/s
8 m/s
5 m/s
3 m/s
0 m/s
2600 J/kg
2400 J/kg
2200 J/kg
2000 J/kg
1800 J/kg
1600 J/kg
1400 J/kg
1200 J/kg
1000 J/kg
800 J/kg
600 J/kg
400 J/kg
200 J/kg
70 dBZ
65 dBZ
60 dBZ
55 dBZ
50 dBZ
45 dBZ
40 dBZ
35 dBZ
30 dBZ
25 dBZ
20 dBZ
15 dBZ
10 dBZ
5 dBZ
-1 K
-2 K
-3 K
-4 K
-5 K
-6 K
-7 K
-8 K
-9 K
950 m²/s²
900 m²/s²
850 m²/s²
800 m²/s²
750 m²/s²
700 m²/s²
650 m²/s²
600 m²/s²
550 m²/s²
500 m²/s²
450 m²/s²
400 m²/s²
350 m²/s²
300 m²/s²
250 m²/s²
200 m²/s²
150 m²/s²
100 m²/s²
46 m/s
44 m/s
42 m/s
40 m/s
38 m/s
36 m/s
34 m/s
32 m/s
30 m/s
28 m/s
26 m/s
24 m/s
22 m/s
20 m/s
16 m/s
12 m/s
8 m/s
4 m/s
30 m/s
28 m/s
26 m/s
24 m/s
22 m/s
20 m/s
18 m/s
16 m/s
14 m/s
12 m/s
10 m/s
8 m/s
6 m/s
4 m/s
2 m/s
3.0
2.8
2.6
2.4
2.2
2.0
1.8
1.6
1.4
1.2
1.0
0.8
0.6
0.4
0.2
15
14
13
12
11
10
9
8
7
6
5
4
3
2
1
90%
80%
70%
60%
50%
40%
30%
20%
10%
42
40
38
36
34
32
30
28
26
24
22
20
18
16
14
12
90+ cm
80-90 cm
70-80 cm
60-70 cm
50-60 cm
40-50 cm
30-40 cm
20-30 cm
10-20 cm
1-10 cm
Sneeuwval
Natte sneeuw
Regen
>120 mm
115 mm
110 mm
105 mm
100 mm
95 mm
90 mm
85 mm
80 mm
75 mm
70 mm
65 mm
60 mm
55 mm
50 mm
45 mm
45 mm
40 mm
35 mm
30 mm
25 mm
20 mm
15 mm
10 mm
5 mm
0.1 mm
960 hPa
880 hPa
800 hPa
720 hPa
640 hPa
560 hPa
584 gpdm
568 gpdm
552 gpdm
536 gpdm
520 gpdm
504 gpdm
488 gpdm
Extreem zwaar Noodweer Kans op onweer
15% 15% 5% 50% 15%

Dag




Kaart






35°
30°
25°
20°
15°
10°
-5°
-10°
-15°
-20°
-25°
-30°
-35°
33> m/s
29 m/s
25 m/s
21 m/s
17 m/s
14 m/s
11 m/s
8 m/s
5 m/s
3 m/s
0 m/s
Extreem zwaar Noodweer Kans op onweer
15% 15% 5% 50% 15%
>120 mm
115 mm
110 mm
105 mm
100 mm
95 mm
90 mm
85 mm
80 mm
75 mm
70 mm
65 mm
60 mm
55 mm